• In Lithuania
  • List of Countries
  • For 7 days
  • Water Temperature
  • Satellite Maps
  • Weather Map
  • Weather Widgets
  • user-avatar
    Login

    Hourly Weather Sumgayit

    Today, 27 May, Sunday

    Time Temperature Precipitation Wind Pressure Humidity
    00:00 +20°C° 0.2 mm 13 mps 741 mmHg 61%
    01:00 +19°C° 0.2 mm 13 mps 741 mmHg 60%
    02:00 +19°C° 0.2 mm 13 mps 742 mmHg 59%
    03:00 +18°C° 0.2 mm 13 mps 742 mmHg 58%
    04:00 +18°C° 0.1 mm 13 mps 743 mmHg 57%
    05:00 +18°C° 0.1 mm 13 mps 743 mmHg 57%
    06:00 +18°C° 0.1 mm 13 mps 744 mmHg 56%
    07:00 +19°C° 0.1 mm 12 mps 745 mmHg 56%
    08:00 +19°C° 0.1 mm 12 mps 745 mmHg 55%
    09:00 +21°C° 0.1 mm 12 mps 746 mmHg 54%
    10:00 +21°C° 0 mm 11 mps 746 mmHg 54%
    11:00 +21°C° 0 mm 11 mps 747 mmHg 54%
    12:00 +19°C° 0 mm 10 mps 747 mmHg 54%
    13:00 +19°C° 0 mm 9 mps 747 mmHg 54%
    14:00 +19°C° 0 mm 9 mps 747 mmHg 53%
    15:00 +20°C° 0 mm 8 mps 747 mmHg 52%
    16:00 +18°C° 0 mm 8 mps 747 mmHg 52%
    17:00 +18°C° 0 mm 7 mps 747 mmHg 51%
    18:00 +19°C° 0 mm 6 mps 747 mmHg 51%
    19:00 +17°C° 0 mm 5 mps 747 mmHg 51%
    20:00 +18°C° 0 mm 4 mps 747 mmHg 51%
    21:00 +18°C° 0 mm 3 mps 747 mmHg 50%
    22:00 +17°C° 0 mm 2 mps 747 mmHg 51%
    23:00 +17°C° 0 mm 2 mps 746 mmHg 52%

    Tomorrow, 28 May, Monday

    Time Temperature Precipitation Wind Pressure Humidity
    00:00 +18°C° 0 mm 1 mps 746 mmHg 52%
    01:00 +18°C° 0 mm 1 mps 745 mmHg 53%
    02:00 +18°C° 0 mm 1 mps 745 mmHg 54%
    03:00 +17°C° 0 mm 2 mps 744 mmHg 55%
    04:00 +17°C° 0 mm 2 mps 744 mmHg 53%
    05:00 +18°C° 0 mm 3 mps 744 mmHg 52%
    06:00 +18°C° 0 mm 3 mps 744 mmHg 51%
    07:00 +19°C° 0 mm 4 mps 744 mmHg 47%
    08:00 +21°C° 0 mm 5 mps 744 mmHg 43%
    09:00 +22°C° 0 mm 5 mps 743 mmHg 39%
    10:00 +25°C° 0 mm 5 mps 743 mmHg 37%
    11:00 +26°C° 0 mm 5 mps 742 mmHg 36%
    12:00 +27°C° 0 mm 5 mps 742 mmHg 34%
    13:00 +27°C° 0 mm 5 mps 741 mmHg 35%
    14:00 +28°C° 0 mm 5 mps 741 mmHg 36%
    15:00 +28°C° 0 mm 6 mps 740 mmHg 37%
    16:00 +27°C° 0 mm 5 mps 740 mmHg 42%
    17:00 +26°C° 0 mm 5 mps 740 mmHg 47%
    18:00 +25°C° 0 mm 5 mps 740 mmHg 52%
    19:00 +23°C° 0 mm 4 mps 740 mmHg 56%
    20:00 +22°C° 0 mm 3 mps 741 mmHg 60%
    21:00 +21°C° 0 mm 2 mps 741 mmHg 64%
    22:00 +21°C° 0 mm 2 mps 741 mmHg 64%
    23:00 +22°C° 0 mm 1 mps 741 mmHg 65%

    Day after tomorrow, 29 May, Tuesday

    Time Temperature Precipitation Wind Pressure Humidity
    00:00 +22°C° 0 mm 1 mps 741 mmHg 66%
    01:00 +21°C° 0 mm 2 mps 740 mmHg 66%
    02:00 +20°C° 0 mm 3 mps 740 mmHg 65%
    03:00 +20°C° 0 mm 4 mps 740 mmHg 65%
    04:00 +20°C° 0 mm 4 mps 741 mmHg 64%
    05:00 +20°C° 0 mm 5 mps 741 mmHg 62%
    06:00 +21°C° 0 mm 6 mps 741 mmHg 60%
    07:00 +22°C° 0 mm 7 mps 741 mmHg 56%
    08:00 +23°C° 0 mm 7 mps 741 mmHg 52%
    09:00 +24°C° 0 mm 8 mps 742 mmHg 48%
    10:00 +24°C° 0 mm 8 mps 742 mmHg 45%
    11:00 +24°C° 0 mm 8 mps 742 mmHg 42%
    12:00 +26°C° 0 mm 9 mps 742 mmHg 40%
    13:00 +26°C° 0 mm 9 mps 742 mmHg 40%
    14:00 +24°C° 0 mm 9 mps 742 mmHg 40%
    15:00 +24°C° 0 mm 10 mps 741 mmHg 40%
    16:00 +23°C° 0 mm 10 mps 742 mmHg 41%
    17:00 +23°C° 0 mm 10 mps 742 mmHg 42%
    18:00 +22°C° 0 mm 10 mps 742 mmHg 44%
    19:00 +22°C° 0 mm 10 mps 742 mmHg 46%
    20:00 +21°C° 0 mm 10 mps 743 mmHg 47%
    21:00 +21°C° 0 mm 10 mps 743 mmHg 49%
    22:00 +19°C° 0 mm 9 mps 743 mmHg 52%
    23:00 +19°C° 0 mm 9 mps 743 mmHg 55%

    30 May, Wednesday

    Time Temperature Precipitation Wind Pressure Humidity
    00:00 +20°C° 0 mm 8 mps 743 mmHg 58%
    01:00 +20°C° 0 mm 8 mps 742 mmHg 59%
    02:00 +18°C° 0 mm 8 mps 742 mmHg 60%
    03:00 +18°C° 0 mm 8 mps 742 mmHg 61%
    04:00 +18°C° 0 mm 7 mps 742 mmHg 60%
    05:00 +18°C° 0 mm 7 mps 742 mmHg 59%
    06:00 +19°C° 0 mm 6 mps 742 mmHg 58%
    07:00 +20°C° 0 mm 6 mps 742 mmHg 52%
    08:00 +21°C° 0 mm 5 mps 743 mmHg 46%
    09:00 +22°C° 0 mm 5 mps 743 mmHg 41%
    10:00 +23°C° 0 mm 5 mps 742 mmHg 37%
    11:00 +25°C° 0 mm 5 mps 742 mmHg 34%
    12:00 +26°C° 0 mm 5 mps 742 mmHg 31%
    13:00 +26°C° 0 mm 5 mps 741 mmHg 30%
    14:00 +26°C° 0 mm 5 mps 741 mmHg 29%
    15:00 +27°C° 0 mm 6 mps 741 mmHg 28%
    16:00 +26°C° 0 mm 5 mps 740 mmHg 29%
    17:00 +26°C° 0 mm 5 mps 740 mmHg 30%
    18:00 +25°C° 0 mm 5 mps 740 mmHg 31%
    19:00 +25°C° 0 mm 4 mps 740 mmHg 33%
    20:00 +24°C° 0 mm 3 mps 739 mmHg 35%
    21:00 +23°C° 0 mm 2 mps 739 mmHg 37%
    22:00 +23°C° 0 mm 2 mps 739 mmHg 39%
    23:00 +23°C° 0 mm 1 mps 738 mmHg 40%

    31 May, Thursday

    Time Temperature Precipitation Wind Pressure Humidity
    00:00 +22°C° 0 mm 1 mps 738 mmHg 42%
    01:00 +22°C° 0 mm 1 mps 737 mmHg 40%
    02:00 +22°C° 0 mm 1 mps 737 mmHg 38%
    03:00 +21°C° 0 mm 2 mps 736 mmHg 37%
    04:00 +21°C° 0 mm 2 mps 736 mmHg 36%
    05:00 +23°C° 0 mm 2 mps 736 mmHg 35%
    06:00 +24°C° 0 mm 2 mps 736 mmHg 35%
    07:00 +25°C° 0 mm 3 mps 735 mmHg 34%
    08:00 +26°C° 0 mm 3 mps 735 mmHg 33%
    09:00 +27°C° 0 mm 4 mps 735 mmHg 31%
    10:00 +28°C° 0 mm 4 mps 735 mmHg 31%
    11:00 +29°C° 0 mm 5 mps 734 mmHg 30%
    12:00 +30°C° 0 mm 5 mps 734 mmHg 30%
    13:00 +30°C° 0 mm 5 mps 733 mmHg 31%
    14:00 +30°C° 0 mm 6 mps 733 mmHg 31%
    15:00 +32°C° 0 mm 6 mps 732 mmHg 32%
    16:00 +30°C° 0 mm 6 mps 732 mmHg 35%
    17:00 +29°C° 0 mm 6 mps 732 mmHg 38%
    18:00 +29°C° 0 mm 5 mps 732 mmHg 41%
    19:00 +28°C° 0 mm 5 mps 732 mmHg 45%
    20:00 +27°C° 0 mm 4 mps 732 mmHg 49%
    21:00 +26°C° 0 mm 3 mps 732 mmHg 53%
    22:00 +26°C° 0 mm 3 mps 732 mmHg 54%
    23:00 +25°C° 0 mm 3 mps 732 mmHg 55%

    1 June, Friday

    Time Temperature Precipitation Wind Pressure Humidity
    00:00 +25°C° 0 mm 2 mps 732 mmHg 55%
    01:00 +24°C° 0 mm 2 mps 732 mmHg 55%
    02:00 +24°C° 0 mm 2 mps 731 mmHg 54%
    03:00 +24°C° 0 mm 1 mps 731 mmHg 53%
    04:00 +24°C° 0 mm 2 mps 731 mmHg 51%
    05:00 +24°C° 0 mm 2 mps 731 mmHg 48%
    06:00 +25°C° 0 mm 2 mps 731 mmHg 45%
    07:00 +27°C° 0 mm 2 mps 732 mmHg 40%
    08:00 +28°C° 0 mm 3 mps 732 mmHg 35%
    09:00 +30°C° 0 mm 4 mps 732 mmHg 30%
    10:00 +32°C° 0 mm 4 mps 732 mmHg 29%
    11:00 +33°C° 0 mm 4 mps 732 mmHg 28%
    12:00 +34°C° 0 mm 5 mps 731 mmHg 26%
    13:00 +34°C° 0 mm 5 mps 731 mmHg 27%
    14:00 +34°C° 0 mm 5 mps 731 mmHg 28%
    15:00 +34°C° 0 mm 5 mps 731 mmHg 29%
    16:00 +32°C° 0 mm 5 mps 731 mmHg 34%
    17:00 +30°C° 0 mm 4 mps 731 mmHg 38%
    18:00 +29°C° 0 mm 4 mps 731 mmHg 43%
    19:00 +28°C° 0 mm 4 mps 731 mmHg 46%
    20:00 +26°C° 0 mm 3 mps 731 mmHg 50%
    21:00 +25°C° 0 mm 3 mps 732 mmHg 54%
    22:00 +25°C° 0 mm 2 mps 732 mmHg 54%
    23:00 +25°C° 0 mm 2 mps 732 mmHg 54%
    Show more